Location: Wingville
(42.9917°N, 90.4915°W)
Time: 17:37:06
(UTC+00:00)

FO-99 - Pass Details

Date: 11 July 2022
Orbit: 458 x 482 km, 97.1° (Epoch: 17 August)

Event Time Altitude Azimuth Distance (km) Brightness Sun altitude
Rises 02:17:55 0° 210° (SSW) 2,478 ? -6.2°
Reaches altitude 10° 02:20:55 10° 240° (WSW) 1,606 ? -6.7°
Maximum altitude 02:22:32 13° 269° (W) 1,442 ? -6.9°
Drops below altitude 10° 02:24:09 10° 297° (WNW) 1,609 ? -7.1°
Sets 02:27:11 0° 327° (NNW) 2,488 ? -7.5°
